Almeria, Spain

6:53 PM CET on February 08, 2016 (GMT +0100)
Almeria

Weather History for LEAM - January, 2013

Change the Weather History Date:

Thursday, January 3, 2013

  Actual Average Record
Temperature  
Mean Temperature 56 °F -  
Max Temperature 62 °F 58 °F - ()
Min Temperature 51 °F 46 °F - ()
Degree Days  
Heating Degree Days 8    
Growing Degree Days 6 (Base 50)    
Moisture  
Dew Point 39 °F    
Average Humidity 50    
Maximum Humidity 63    
Minimum Humidity 28    
Precipitation  
Precipitation 0.00 in 0.03 in - ()
Sea Level Pressure  
Sea Level Pressure 30.47 in    
Wind  
Wind Speed 10 mph ()    
Max Wind Speed 20 mph    
Max Gust Speed -    
Visibility 6.2 miles    
Events      
T = Trace of Precipitation, MM = Missing Value Source: Averaged Metar Reports

Daily Weather History Graph

Daily Weather History Graph

Search for Another Location

Airport or City:

Trip Planner

Search our weather history database for the weather conditions in past years. The results will help you decide how hot, cold, wet, or windy it might be!

Date:

Astronomy

Jan. 03, 2013 Rise Set
Actual Time 8:22 AM CET 6:05 PM CET
Civil Twilight 7:53 AM CET 6:34 PM CET
Nautical Twilight 7:21 AM CET 7:06 PM CET
Astronomical Twilight 6:50 AM CET 7:38 PM CET
Moon No Moon Rise 11:36 AM CET (1/3)
Length of Visible Light 10h 40m
Length of Day
9h 42m
Waning Gibbous, 68% of the Moon is Illuminated
Jan 3
Waning Gibbous
Jan 5
Last Quarter
Jan 11
New
Jan 19
First Quarter
Jan 27
Full

Hourly Weather History & Observations

Time (CET) Temp. Dew Point Humidity Pressure Visibility Wind Dir Wind Speed Gust Speed Precip Events Conditions
12:00 AM 55.4 °F 41.0 °F 58% 30.30 in 6.2 mi NW 12.7 mph - N/A   Scattered Clouds
12:30 AM 55.4 °F 39.2 °F 54% 30.30 in 6.2 mi NNW 10.4 mph - N/A   Scattered Clouds
1:00 AM 52 °F 37 °F 46% 30.32 in - North 6.9 mph - -  
1:00 AM 53.6 °F 39.2 °F 58% 30.30 in 6.2 mi North 6.9 mph - N/A   Scattered Clouds
1:30 AM 53.6 °F 37.4 °F 54% 30.30 in 6.2 mi NNE 9.2 mph - N/A   Mostly Cloudy
2:00 AM 55.4 °F 35.6 °F 47% 30.30 in 6.2 mi NNE 10.4 mph - N/A   Mostly Cloudy
2:30 AM 53.6 °F 37.4 °F 54% 30.33 in 6.2 mi NNW 8.1 mph - N/A   Mostly Cloudy
3:00 AM 53.6 °F 37.4 °F 54% 30.33 in 6.2 mi NNW 12.7 mph - N/A   Mostly Cloudy
3:30 AM 53.6 °F 35.6 °F 51% 30.36 in 6.2 mi NNW 11.5 mph - N/A   Mostly Cloudy
4:00 AM 53.6 °F 35.6 °F 51% 30.36 in 6.2 mi Variable 2.3 mph - N/A   Mostly Cloudy
4:30 AM 53.6 °F 35.6 °F 51% 30.36 in 6.2 mi ENE 13.8 mph - N/A   Mostly Cloudy
5:00 AM 55.4 °F 35.6 °F 47% 30.36 in 6.2 mi NE 13.8 mph - N/A   Scattered Clouds
5:30 AM 55.4 °F 33.8 °F 44% 30.36 in 6.2 mi NNE 11.5 mph - N/A   Partly Cloudy
6:00 AM 55.4 °F 33.8 °F 44% 30.39 in 6.2 mi NNE 10.4 mph - N/A   Partly Cloudy
6:30 AM 53.6 °F 33.8 °F 47% 30.39 in 6.2 mi North 8.1 mph - N/A   Partly Cloudy
7:00 AM 53 °F 36 °F 40% 30.42 in 31 mi North 10.4 mph - -  
7:00 AM 53.6 °F 37.4 °F 54% 30.42 in - North 9.2 mph - N/A   Clear
7:30 AM 53.6 °F 37.4 °F 54% 30.42 in - North 6.9 mph - N/A   Clear
8:00 AM 53.6 °F 39.2 °F 58% 30.45 in 6.2 mi North 5.8 mph - N/A   Partly Cloudy
8:30 AM 53.6 °F 39.2 °F 58% 30.45 in 6.2 mi NNE 8.1 mph - N/A   Partly Cloudy
9:00 AM 55.4 °F 39.2 °F 54% 30.48 in 6.2 mi North 6.9 mph - N/A   Partly Cloudy
9:30 AM 57.2 °F 39.2 °F 51% 30.48 in 6.2 mi NNE 9.2 mph - N/A   Partly Cloudy
10:00 AM 59.0 °F 39.2 °F 48% 30.51 in 6.2 mi NNE 15.0 mph - N/A   Partly Cloudy
10:30 AM 59.0 °F 41.0 °F 51% 30.51 in 6.2 mi NE 17.3 mph - N/A   Partly Cloudy
11:00 AM 60.8 °F 39.2 °F 45% 30.54 in 6.2 mi NE 17.3 mph - N/A   Partly Cloudy
11:30 AM 60.8 °F 39.2 °F 45% 30.54 in 6.2 mi ENE 18.4 mph - N/A   Partly Cloudy
12:00 PM 59.0 °F 39.2 °F 48% 30.54 in 6.2 mi ENE 19.6 mph - N/A   Partly Cloudy
12:30 PM 60.8 °F 39.2 °F 45% 30.54 in 6.2 mi ENE 16.1 mph - N/A   Partly Cloudy
1:00 PM 61 °F 37 °F 28% 30.56 in 25 mi NE 17.3 mph - -   Scattered Clouds
1:00 PM 62.6 °F 39.2 °F 42% 30.54 in 6.2 mi NE 16.1 mph - N/A   Partly Cloudy
2:00 PM 62.6 °F 39.2 °F 42% 30.54 in 6.2 mi ENE 18.4 mph - N/A   Partly Cloudy
2:30 PM 62.6 °F 39.2 °F 42% 30.51 in 6.2 mi ENE 17.3 mph - N/A   Partly Cloudy
3:00 PM 62.6 °F 41.0 °F 45% 30.51 in 6.2 mi ENE 18.4 mph - N/A   Partly Cloudy
3:30 PM 62.6 °F 39.2 °F 42% 30.51 in 6.2 mi ENE 16.1 mph - N/A   Scattered Clouds
4:00 PM 60.8 °F 39.2 °F 45% 30.54 in 6.2 mi ENE 12.7 mph - N/A   Mostly Cloudy
4:30 PM 60.8 °F 39.2 °F 45% 30.54 in 6.2 mi East 12.7 mph - N/A   Mostly Cloudy
5:00 PM 60.8 °F 39.2 °F 45% 30.54 in 6.2 mi ENE 13.8 mph - N/A   Mostly Cloudy
5:30 PM 60.8 °F 39.2 °F 45% 30.54 in 6.2 mi ENE 10.4 mph - N/A   Mostly Cloudy
6:00 PM 59.0 °F 41.0 °F 51% 30.57 in 6.2 mi East 9.2 mph - N/A   Mostly Cloudy
6:30 PM 59.0 °F 41.0 °F 51% 30.57 in 6.2 mi ENE 8.1 mph - N/A   Mostly Cloudy
7:00 PM 57 °F 40 °F 42% 30.59 in 25 mi ENE 11.5 mph - -   Scattered Clouds
7:00 PM 59.0 °F 42.8 °F 55% 30.57 in 6.2 mi ENE 10.4 mph - N/A   Mostly Cloudy
7:30 PM 57.2 °F 41.0 °F 55% 30.57 in 6.2 mi ENE 9.2 mph - N/A   Mostly Cloudy
8:00 PM 55.4 °F 41.0 °F 58% 30.60 in 6.2 mi ENE 9.2 mph - N/A   Mostly Cloudy
8:30 PM 55.4 °F 42.8 °F 63% 30.60 in 6.2 mi NE 9.2 mph - N/A   Mostly Cloudy
9:00 PM 55.4 °F 42.8 °F 63% 30.60 in 6.2 mi NE 8.1 mph - N/A   Mostly Cloudy
9:30 PM 55.4 °F 42.8 °F 63% 30.60 in 6.2 mi NE 11.5 mph - N/A   Mostly Cloudy
10:00 PM 55.4 °F 42.8 °F 63% 30.63 in 6.2 mi NE 12.7 mph - N/A   Scattered Clouds
10:30 PM 55.4 °F 42.8 °F 63% 30.63 in 6.2 mi NE 11.5 mph - N/A   Partly Cloudy